{"data":{"norad_id":29505,"intl_designator":"2006-046A","name":"SHIJIAN-6 02A (SJ-6 02A)","alt_names":[],"object_type":"PAYLOAD","status":"ACTIVE","operator":null,"country":"PRC","launch_date":"2006-10-23","launch_site_code":"TAISC","launch_vehicle":null,"mission":null,"orbit_class":"UNKNOWN","rcs_meters":1.159,"size_class":null,"mass_kg":null,"dimensions":null,"purposes":["science"],"wikipedia_slug":null,"has_3d_model":false,"image_url":null,"decayed_at":null,"tle_current":{"epoch":"2026-09-19T22:01:41.120256Z","epoch_age_seconds":68642,"freshness":"FRESH","line1":"1 29505U 06046A   26262.91783704  .00003739  00000+0  18817-3 0  9993","line2":"2 29505  97.6284 304.7154 0003606 145.9590 214.1875 15.17843723 86633","mean_motion":15.17843723,"eccentricity":0.0003606,"inclination_deg":97.6284,"raan_deg":304.7154,"arg_perigee_deg":145.959,"mean_anomaly_deg":214.1875,"bstar":0.00018817,"rev_number":8663,"period_min":94.871427023716,"perigee_km":509.87402930872,"apogee_km":514.8434548379,"semimajor_km":6890.4957420733,"source":"CELESTRAK","updated_at":"2026-09-20T09:00:47.142809Z"}}}